Погода в Саме

Погода в Саме : погода сейчас, прогноз погоды и архив. Всё, что Вы хотите узнать о погоде в Саме!

Поиск расширенной информации на нашем сайте:

Другие новости

Новости СМИ2

Главная страница сайта

Новости сайта

03.07.2017

Напоминаем, что на нашем специализированном сайте Метеоцентр.Азия вы можете получить высокодетализированные автоматические прогнозы погоды по пунктам России, СНГ и мира в авиационном формате (включающие направление и скорость ветра, видимость, явления погоды, количество и форму облачности, нижнюю и верхнюю границу облачности).


Погода в Саме - сегодня

Время (UTC), дата Ветер
(°,м/с) 
Видим.   Явления Облачность Т
(°С)
Тd
(°С)
f(%) Тe
(°С)
Pmin
(гПа)
dP
(гПа)
Po
(мм)
O2
(г/м3)
Тmin Tmax R s Состояние
почвы
18 18.01.18 110 (В) н/о    10/0 средняя 
[As op]
-11.1 -12.4 90 -17  1021.5  -1.4  758  319    -12       
21 18.01.18 110 (В) н/о    10/0 средняя 
[As op]
-10.5 -11.8 90 -16  1020.8  -0.6  757  318           
00 19.01.18 110 (В) н/о    10/0 средняя 
[As op]
-9.4 -10.6 91 -15  1019.8  -1  756  317           
03 19.01.18 110 (В) н/о    10/0 средняя 
[As op]
-8.9 -10.4 89 -14  1019.2  -0.5  756  315  -12.1      равномерный
сухой снег
100% 
06 19.01.18 110 (В) 4000 м  слаб. снег  10/10 600 м 
[Ns]
-7.8 -9.6 87 -13  1019.8  0.6  757  314  -12.1         
09 19.01.18 090 (В) 2000 м  снег  10/10 600 м 
[Ns]
-5.8 -7.3 89 -10  1018.9  -0.8  756  311           
12 19.01.18 090 (В) 10 км  позёмок{снег}  9/9 600 м 
[Frnb]
-5.1 -6.5 90 -11  1017.2  -1.8  754  310           
15 19.01.18 090 (В) н/о  позёмок  10/10 600 м 
[Ns]
-5.7 -7.9 84 -12  1017.5  0.4  755  311    -4.8       
18 19.01.18 090 (В) н/о  позёмок  10/0 средняя 
[As op]
-5.8 -8.8 79 -11  1018.6  1.1  756  311    -4.8     
21 19.01.18 090 (В) н/о  позёмок  9/0 средняя 
[As trans]
-6.9 -9.8 80 -12  1019.2  0.6  756  313           
00 20.01.18 090 (В) н/о    ясно 
-8.1 -10.4 83 -12  1017.1  -2.2  754  314           
03 20.01.18 070 (В) н/о    9/0 средняя, верхняя 
[Ac lent|Ci sp]
-9.2 -10.8 88 -13  1018.2  756  316  -9.3      равномерный
сухой снег
100% 
06 20.01.18 090 (В) 20000 м    3/0 верхняя 
[Ci sp]
-7.5 -9.7 84 -11  1019  0.9  756  313  -9.3         
09 20.01.18 090 (В) 20000 м    9/0 верхняя 
[Ci sp]
-4.8 -7.8 79 -9  1018.5  -0.3  756  310           
12 20.01.18 090 (В) 20000 м    9/0 верхняя 
[Cs]
-5 -7.4 83 -8  1019.5  0.9  756  311           
15 20.01.18 090 (В) н/о    9/0 средняя, верхняя 
[Ac lent|Cs]
-7.7 -9.1 90 -9  1020.1  0.5  757  314    -4.3       
18 20.01.18 070 (В) н/о  дымка  8/0 средняя 
[Ac cast]
-8.5 -9.6 92 -10  1021.4  1.3  758  315    -4.3       
21 20.01.18 050 (СВ) н/о  дымка  3/0 верхняя 
[Ci sp]
-11.4 -12.7 90 -13  1021.7  0.1  758  319           
00 21.01.18 070 (В) н/о  дымка  10/0 средняя 
[As op]
-11.3 -12.6 90 -11  1021.9  0.2  758  320           
03 21.01.18 тихо ()   н/о    10/0 средняя 
[As op]
-10.7 -12 90 -11  1022.3  0.5  759  319        равномерный
сухой снег
100% 
06 21.01.18 тихо ()   20000 м    3/0 верхняя 
[Ci fib]
-11.2 -13.2 85 -11  1020.1  0.7  757  318  -13.3         
09 21.01.18 090 (В) 20000 м    ясно 
-7.2 -10.6 77 -7  1021.8  -1.1  758  314           
12 21.01.18 090 (В) 20000 м    ясно 
-5.9 -9.4 76 -6  1021.5  -0.2  758  313           
15 21.01.18 090 (В) н/о    ясно 
-9.9 -11.6 87 -12  1022.2  0.5  759  318    -7.1       
18 21.01.18 тихо ()   н/о    ясно 
-9.7 -10.9 91 -10  1022.7  0.5  759  317    -7.1       
Время (UTC), дата Ветер
(°,м/с) 
Видим.   Явления Облачность Т
(°С)
Тd
(°С)
f(%) Тe
(°С)
Pmin
(гПа)
dP
(гПа)
Po
(мм)
O2
(г/м3)
Тmin Tmax R s Состояние
почвы

Для получения пояснительной информации подведите курсор к названию столбца.

ПОГОДА в Саме - архив

Всё, что Вы хотите узнать о погоде в Саме - удобно и подробно!

Выберите нужную дату (начиная с 1 января 2015* года) и нажмите кнопку "Найти".
Будут отображены архивные сводки погоды по пункту Сам, начиная с указанной даты.


Отображать данные в формате CSV (для использования в таблицах Excel)


Внимание! Наш архив погоды предназначен исключительно для личного некоммерческого использования в познавательных целях. Если Вам необходимы официальные справки о состоянии погоды (для производственных, юридических, коммерческих и т.п. целей), обращайтесь в органы Росгидромета.

*Примечание: данная дата относится к архиву по метеостанциям СССР (Россия, СНГ, Балтия).
Архив по метеостанциям Зарубежной Европы и Азии (кроме Китая) хранится 10 дней, по другим регионам земного шара (Китай, Африка, Америка, Австралия, Океания) - 1 день.

Сам - район местоположения метеостанции


Название, широта, долгота, высота метеостанции:
Сам 45.4°ш. 56.1°д. 82 м над ур. моря [Казахстан]

Дополнительная информация

В oтличие oт бoльшинства пoгoдных сайтoв мы публикуем пoдрoбную метеoинфoрмацию в детальнoм прoфессиoнальнoм фoрмате.

Характеристики температуры и влажнoсти вoздуха измеряются на высoте 2 м в тени вдали oт зданий и деревьев.
Скoрoсть ветра измеряется на высoте 10 м (на урoвне рoста челoвека скoрoсть ветра ниже в 1.5-2 раза). Если метеoстанция нахoдится в гoрoде или в лесу, тo скoрoсть ветра занижена на 2-4 м/с пo сравнению с oткрытым местoм. Скoрoсть ветра над акватoриями крупных рек и oзёр, а также на вершинах хoлмoв на 2-5 м/с выше, чем в oбычных услoвиях.
Атмoсфернoе давление в разных тoчках местнoсти мoжет значительнo oтличаться oт давления на метеoстанции, в зависимoсти oт услoвий рельефа (при пoдъёме на 10 м давление пoнижается примернo на 1 мм рт.ст.).